sat.trackr.live / text

‹ back to catalog

STARLINK-5501

NORAD 55648 · 2023-021W

PAYLOAD ACTIVE UNKNOWN

§ Identity

Operator
Country
US
Launch date
2023-02-17
Launch site
AFWTR
Launch vehicle
Mass (kg)
RCS (m²)

Purposes: comms

External: N2YO · Heavens-Above · Gunter

§ Orbital elements

Epoch: 2026-05-25T00:24:49.415040Z

Period
96.10 min
Inclination
69.9991°
Eccentricity
0.0002834
Mean motion
14.98372637 rev/d
Perigee alt
570.0 km
Apogee alt
573.9 km
Semi-major
6,950.1 km
B*
-6.2046e-4
RAAN
352.0443°
Arg perigee
264.0187°
Mean anomaly
96.0649°
Rev number
18,022

§ Raw data

STARLINK-55011 55648U 23021W   26145.01723860 -.00007496  00000+0 -62046-3 0  99992 55648  69.9991 352.0443 0002834 264.0187  96.0649 14.98372637180226

JSON: /api/v1/satellites/55648 · /tle

For live sub-satellite position, see the globe view (requires WebGL).

§ Visibility from observer

Set your observer location to see the next 7 days of passes ≥ 10°. The values pass through the URL so the page stays shareable.

No JS? Fill the form by hand. The geolocation button needs JavaScript.